DLH2UE EDDM-EDDF

Flight info

Callsign DLH2UE
Flight time 0h 44m
Altitude 24000
Route GIVMI6Q/08L GIVMI Y101 ERNAS T161 DEBHI DEBHI1C
Aircraft A320/M-SDE3FGHIRWY/LB1

Departure

Time 2026-05-01 14:11
Airport Munich Airport (EDDM)

Arrival

Time 2026-05-01 14:56
Airport Frankfurt Main Airport (EDDF)
Time Latitude Longitude Altitude Speed Heading
2026-05-01 13:40 48.35581 11.79731 1467 ft 0 kts 84°
2026-05-01 13:58 48.35580 11.79707 1456 ft 2 kts 84°
2026-05-01 13:59 48.35578 11.79681 1460 ft 2 kts 84°
2026-05-01 13:59 48.35576 11.79656 1456 ft 2 kts 84°
2026-05-01 13:59 48.35575 11.79630 1457 ft 2 kts 84°
2026-05-01 13:59 48.35573 11.79604 1458 ft 2 kts 97°
2026-05-01 14:00 48.35569 11.79580 1467 ft 2 kts 25°
2026-05-01 14:00 48.35563 11.79576 1467 ft 0 kts 357°
2026-05-01 14:02 48.35566 11.79577 1467 ft 0 kts
2026-05-01 14:03 48.35571 11.79573 1467 ft 1 kts 338°
2026-05-01 14:03 48.35572 11.79571 1467 ft 0 kts 327°
2026-05-01 14:03 48.35573 11.79570 1467 ft 1 kts 331°
2026-05-01 14:03 48.35618 11.79563 1467 ft 14 kts 353°
2026-05-01 14:04 48.35733 11.79543 1467 ft 17 kts 353°
2026-05-01 14:04 48.35848 11.79523 1459 ft 14 kts 353°
2026-05-01 14:04 48.35895 11.79432 1465 ft 11 kts 272°
2026-05-01 14:04 48.35933 11.79346 1459 ft 10 kts 337°
2026-05-01 14:05 48.35991 11.79335 1465 ft 7 kts 354°
2026-05-01 14:05 48.36005 11.79332 1465 ft 0 kts 354°
2026-05-01 14:06 48.36041 11.79327 1461 ft 11 kts 352°
2026-05-01 14:06 48.36083 11.79237 1465 ft 12 kts 267°
2026-05-01 14:07 48.36072 11.79084 1468 ft 17 kts 263°
2026-05-01 14:07 48.36056 11.78873 1468 ft 24 kts 263°
2026-05-01 14:07 48.36036 11.78606 1467 ft 27 kts 263°
2026-05-01 14:08 48.35994 11.78067 1467 ft 25 kts 263°
2026-05-01 14:08 48.35975 11.77818 1460 ft 23 kts 263°
2026-05-01 14:08 48.35985 11.77684 1461 ft 11 kts 315°
2026-05-01 14:08 48.36053 11.77658 1463 ft 10 kts 354°
2026-05-01 14:09 48.36117 11.77673 1467 ft 10 kts 25°
2026-05-01 14:09 48.36172 11.77755 1461 ft 13 kts 53°
2026-05-01 14:09 48.36225 11.77862 1463 ft 5 kts 53°
2026-05-01 14:09 48.36259 11.77932 1462 ft 13 kts 53°
2026-05-01 14:10 48.36330 11.78072 1462 ft 21 kts 53°
2026-05-01 14:10 48.36396 11.78302 1462 ft 29 kts 81°
2026-05-01 14:10 48.36440 11.78874 1465 ft 88 kts 83°
2026-05-01 14:10 48.36532 11.80092 1467 ft 144 kts 86°
2026-05-01 14:11 48.36615 11.81642 2024 ft 150 kts 86°
2026-05-01 14:11 48.36821 11.84892 3277 ft 167 kts 73°
2026-05-01 14:11 48.37596 11.86265 3789 ft 189 kts 26°
2026-05-01 14:12 48.38950 11.86601 4355 ft 206 kts
2026-05-01 14:12 48.40412 11.86678 4925 ft 216 kts
2026-05-01 14:12 48.41899 11.86068 5451 ft 233 kts 330°
2026-05-01 14:12 48.43127 11.84346 5974 ft 253 kts 310°
2026-05-01 14:13 48.44312 11.82233 6489 ft 274 kts 311°
2026-05-01 14:13 48.45144 11.80754 6833 ft 283 kts 311°
2026-05-01 14:13 48.46864 11.77707 7541 ft 291 kts 311°
2026-05-01 14:13 48.48176 11.75388 8081 ft 291 kts 312°
2026-05-01 14:14 48.49491 11.73065 8631 ft 294 kts 313°
2026-05-01 14:14 48.50831 11.70702 9191 ft 297 kts 313°
2026-05-01 14:14 48.52177 11.68324 9768 ft 298 kts 313°
2026-05-01 14:14 48.53522 11.65945 10335 ft 299 kts 313°
2026-05-01 14:15 48.54873 11.63557 10860 ft 300 kts 313°
2026-05-01 14:15 48.56234 11.61153 11388 ft 303 kts 314°
2026-05-01 14:15 48.57612 11.58717 11950 ft 308 kts 313°
2026-05-01 14:15 48.59032 11.56209 12506 ft 320 kts 313°
2026-05-01 14:16 48.60505 11.53611 13075 ft 331 kts 313°
2026-05-01 14:16 48.62026 11.50924 13667 ft 341 kts 313°
2026-05-01 14:16 48.63589 11.48153 14237 ft 350 kts 313°
2026-05-01 14:16 48.65183 11.45315 14766 ft 358 kts 313°
2026-05-01 14:17 48.66811 11.42406 15300 ft 366 kts 313°
2026-05-01 14:17 48.68445 11.39483 15836 ft 371 kts 313°
2026-05-01 14:17 48.70219 11.36626 16375 ft 373 kts 321°
2026-05-01 14:17 48.72288 11.34266 16936 ft 374 kts 329°
2026-05-01 14:18 48.74464 11.32067 17510 ft 377 kts 329°
2026-05-01 14:18 48.76654 11.29856 18076 ft 380 kts 329°
2026-05-01 14:18 48.78870 11.27620 18673 ft 384 kts 329°
2026-05-01 14:18 48.80338 11.26136 19020 ft 386 kts 329°
2026-05-01 14:19 48.83341 11.23095 19725 ft 389 kts 329°
2026-05-01 14:19 48.85482 11.20555 20262 ft 394 kts 320°
2026-05-01 14:19 48.87502 11.17736 20806 ft 396 kts 320°
2026-05-01 14:19 48.89538 11.14897 21365 ft 398 kts 320°
2026-05-01 14:20 48.91579 11.12052 21933 ft 399 kts 320°
2026-05-01 14:20 48.95683 11.06322 23106 ft 400 kts 320°
2026-05-01 14:20 48.97713 11.03487 23682 ft 400 kts 320°
2026-05-01 14:21 48.99763 11.00619 24175 ft 403 kts 320°
2026-05-01 14:21 49.01848 10.97703 24318 ft 410 kts 320°
2026-05-01 14:21 49.03938 10.94773 24373 ft 408 kts 320°
2026-05-01 14:22 49.08115 10.88887 24374 ft 407 kts 319°
2026-05-01 14:22 49.10190 10.85953 24374 ft 407 kts 320°
2026-05-01 14:22 49.12269 10.83009 24388 ft 407 kts 320°
2026-05-01 14:22 49.14342 10.80071 24388 ft 407 kts 320°
2026-05-01 14:23 49.16417 10.77129 24386 ft 407 kts 320°
2026-05-01 14:23 49.18497 10.74178 24388 ft 407 kts 319°
2026-05-01 14:23 49.20562 10.71214 24384 ft 408 kts 318°
2026-05-01 14:23 49.22577 10.68167 24345 ft 408 kts 317°
2026-05-01 14:24 49.24559 10.65048 24349 ft 408 kts 316°
2026-05-01 14:24 49.26516 10.61900 24344 ft 408 kts 316°
2026-05-01 14:24 49.28467 10.58740 24342 ft 408 kts 315°
2026-05-01 14:24 49.30421 10.55587 24341 ft 408 kts 315°
2026-05-01 14:25 49.32386 10.52438 24345 ft 409 kts 316°
2026-05-01 14:25 49.34338 10.49337 24037 ft 412 kts 316°
2026-05-01 14:25 49.36339 10.46193 23484 ft 407 kts 317°
2026-05-01 14:25 49.38314 10.43120 23317 ft 403 kts 316°
2026-05-01 14:26 49.40241 10.39984 23314 ft 405 kts 311°
2026-05-01 14:26 49.43172 10.32748 22731 ft 395 kts 300°
2026-05-01 14:26 49.44467 10.29042 22442 ft 393 kts 301°
2026-05-01 14:27 49.45824 10.25405 22149 ft 391 kts 302°
2026-05-01 14:27 49.47267 10.21878 21858 ft 388 kts 304°
2026-05-01 14:27 49.48778 10.18444 21577 ft 387 kts 306°
2026-05-01 14:28 49.51890 10.11711 21341 ft 385 kts 307°
2026-05-01 14:28 49.53452 10.08357 21146 ft 385 kts 307°
2026-05-01 14:28 49.54998 10.04999 20938 ft 384 kts 306°
2026-05-01 14:28 49.56536 10.01618 20834 ft 384 kts 306°
2026-05-01 14:29 49.58041 9.98281 20735 ft 384 kts 306°
2026-05-01 14:29 49.59558 9.94902 20634 ft 384 kts 306°
2026-05-01 14:30 49.64100 9.84755 20193 ft 383 kts 305°
2026-05-01 14:30 49.65610 9.81381 19873 ft 381 kts 305°
2026-05-01 14:30 49.67105 9.78030 19555 ft 375 kts 305°
2026-05-01 14:31 49.70011 9.71504 18875 ft 358 kts 305°
2026-05-01 14:31 49.71394 9.68393 18547 ft 345 kts 305°
2026-05-01 14:31 49.72744 9.65359 18161 ft 341 kts 305°
2026-05-01 14:31 49.74103 9.62300 17772 ft 358 kts 305°
2026-05-01 14:32 49.75536 9.59075 17326 ft 367 kts 305°
2026-05-01 14:32 49.76496 9.56913 17034 ft 367 kts 305°
2026-05-01 14:32 49.78424 9.52564 16457 ft 366 kts 304°
2026-05-01 14:32 49.79859 9.49318 16026 ft 364 kts 304°
2026-05-01 14:33 49.81268 9.46125 15611 ft 363 kts 304°
2026-05-01 14:33 49.82683 9.42902 15190 ft 361 kts 304°
2026-05-01 14:33 49.84093 9.39691 14775 ft 360 kts 304°
2026-05-01 14:33 49.85249 9.37054 14447 ft 359 kts 303°
2026-05-01 14:34 49.86407 9.33644 14023 ft 357 kts 291°
2026-05-01 14:34 49.87161 9.29988 13509 ft 357 kts 285°
2026-05-01 14:34 49.87862 9.26302 12985 ft 356 kts 285°
2026-05-01 14:34 49.88568 9.22614 12471 ft 356 kts 285°
2026-05-01 14:35 49.89270 9.18943 11959 ft 355 kts 285°
2026-05-01 14:35 49.89970 9.15273 11533 ft 353 kts 285°
2026-05-01 14:35 49.90657 9.11663 11330 ft 344 kts 285°
2026-05-01 14:35 49.91326 9.08125 11315 ft 340 kts 284°
2026-05-01 14:36 49.91991 9.04611 11322 ft 339 kts 284°
2026-05-01 14:36 49.92657 9.01102 11320 ft 339 kts 285°
2026-05-01 14:36 49.93319 8.97641 11315 ft 338 kts 285°
2026-05-01 14:36 49.93990 8.94138 11313 ft 339 kts 285°
2026-05-01 14:37 49.94660 8.90635 11312 ft 338 kts 285°
2026-05-01 14:37 49.95327 8.87124 11310 ft 338 kts 284°
2026-05-01 14:37 49.95975 8.83706 11305 ft 322 kts 285°
2026-05-01 14:37 49.96596 8.80440 11304 ft 311 kts 284°
2026-05-01 14:38 49.97204 8.77229 11304 ft 308 kts 284°
2026-05-01 14:38 49.97724 8.74004 11251 ft 306 kts 276°
2026-05-01 14:38 49.97767 8.70749 10922 ft 300 kts 261°
2026-05-01 14:38 49.97287 8.67637 10603 ft 294 kts 246°
2026-05-01 14:39 49.96557 8.64674 10273 ft 293 kts 247°
2026-05-01 14:39 49.95850 8.61770 9950 ft 291 kts 246°
2026-05-01 14:39 49.95146 8.58839 9594 ft 289 kts 247°
2026-05-01 14:39 49.94448 8.55925 9214 ft 287 kts 246°
2026-05-01 14:40 49.93753 8.53030 8850 ft 285 kts 247°
2026-05-01 14:40 49.93061 8.50156 8466 ft 284 kts 247°
2026-05-01 14:40 49.92371 8.47294 8111 ft 282 kts 247°
2026-05-01 14:40 49.91685 8.44446 7749 ft 281 kts 247°
2026-05-01 14:41 49.91006 8.41626 7403 ft 279 kts 246°
2026-05-01 14:41 49.90327 8.38815 7048 ft 277 kts 246°
2026-05-01 14:41 49.89879 8.36967 6801 ft 276 kts 246°
2026-05-01 14:41 49.89204 8.34191 6429 ft 274 kts 246°
2026-05-01 14:42 49.88532 8.31431 6048 ft 273 kts 246°
2026-05-01 14:42 49.87864 8.28686 5682 ft 271 kts 246°
2026-05-01 14:42 49.87198 8.25948 5302 ft 270 kts 246°
2026-05-01 14:42 49.86536 8.23226 4975 ft 269 kts 246°
2026-05-01 14:43 49.85873 8.20511 4576 ft 269 kts 246°
2026-05-01 14:43 49.85211 8.17798 4238 ft 268 kts 247°
2026-05-01 14:43 49.84569 8.15151 4106 ft 256 kts 246°
2026-05-01 14:43 49.83956 8.12615 3991 ft 246 kts 247°
2026-05-01 14:44 49.83363 8.10178 3978 ft 241 kts 245°
2026-05-01 14:44 49.82171 8.05326 3975 ft 241 kts 246°
2026-05-01 14:44 49.81574 8.02894 3976 ft 242 kts 246°
2026-05-01 14:45 49.80978 8.00466 3976 ft 241 kts 246°
2026-05-01 14:45 49.79790 7.95640 3976 ft 241 kts 246°
2026-05-01 14:45 49.79223 7.93204 3976 ft 242 kts 254°
2026-05-01 14:46 49.79140 7.90611 3986 ft 243 kts 272°
2026-05-01 14:46 49.80914 7.86384 3982 ft 246 kts 336°
2026-05-01 14:46 49.82561 7.85900 3975 ft 241 kts
2026-05-01 14:47 49.84129 7.86709 3986 ft 237 kts 33°
2026-05-01 14:47 49.85471 7.88148 3985 ft 234 kts 41°
2026-05-01 14:47 49.86739 7.89711 3982 ft 233 kts 42°
2026-05-01 14:48 49.88881 7.93342 3985 ft 228 kts 61°
2026-05-01 14:48 49.89677 7.95462 3984 ft 227 kts 65°
2026-05-01 14:48 49.91197 7.99769 3996 ft 229 kts 58°
2026-05-01 14:49 49.92656 8.04112 3991 ft 228 kts 72°
2026-05-01 14:49 49.93723 8.08497 3987 ft 227 kts 73°
2026-05-01 14:50 49.94657 8.12312 3987 ft 228 kts 72°
2026-05-01 14:50 49.95968 8.17692 3991 ft 228 kts 72°
2026-05-01 14:51 49.96528 8.19993 3990 ft 225 kts 72°
2026-05-01 14:51 49.97576 8.24302 3882 ft 207 kts 73°
2026-05-01 14:52 49.98575 8.28423 3375 ft 197 kts 72°
2026-05-01 14:52 49.99044 8.30357 3080 ft 184 kts 72°
2026-05-01 14:52 49.99883 8.33822 2599 ft 159 kts 73°
2026-05-01 14:53 50.00252 8.35347 2380 ft 145 kts 73°
2026-05-01 14:53 50.00600 8.36794 2169 ft 140 kts 74°
2026-05-01 14:53 50.00937 8.38190 1994 ft 136 kts 75°
2026-05-01 14:53 50.01268 8.39591 1775 ft 140 kts 74°
2026-05-01 14:54 50.01596 8.40992 1616 ft 135 kts 73°
2026-05-01 14:54 50.01931 8.42356 1420 ft 136 kts 71°
2026-05-01 14:54 50.02266 8.43741 1210 ft 136 kts 72°
2026-05-01 14:54 50.02587 8.45130 999 ft 136 kts 74°
2026-05-01 14:55 50.02931 8.46478 804 ft 135 kts 74°
2026-05-01 14:55 50.03258 8.47845 599 ft 135 kts 73°
2026-05-01 14:55 50.03574 8.49193 429 ft 133 kts 73°
2026-05-01 14:55 50.03890 8.50503 336 ft 116 kts 70°
2026-05-01 14:56 50.04104 8.51384 360 ft 43 kts 71°
2026-05-01 14:56 50.04105 8.51683 361 ft 24 kts 98°
2026-05-01 14:56 50.04078 8.51929 358 ft 10 kts 98°
2026-05-01 14:56 50.04077 8.51936 359 ft 1 kts 98°
2026-05-01 14:57 50.04077 8.51937 358 ft 0 kts 98°
2026-05-01 14:58 50.04077 8.51939 358 ft 1 kts 98°
2026-05-01 14:58 50.04071 8.52015 358 ft 14 kts 96°
2026-05-01 14:58 50.04082 8.52175 360 ft 16 kts 72°
2026-05-01 14:58 50.04122 8.52347 358 ft 19 kts 70°
2026-05-01 14:59 50.04171 8.52554 363 ft 20 kts 70°
2026-05-01 14:59 50.04217 8.52749 363 ft 19 kts 69°
2026-05-01 14:59 50.04261 8.52931 369 ft 17 kts 69°
2026-05-01 14:59 50.04302 8.53097 372 ft 17 kts 69°
2026-05-01 15:00 50.04391 8.53476 375 ft 21 kts 75°
2026-05-01 15:00 50.04411 8.53712 375 ft 24 kts 84°
2026-05-01 15:00 50.04428 8.53978 378 ft 24 kts 84°
2026-05-01 15:01 50.04444 8.54245 370 ft 29 kts 85°
2026-05-01 15:01 50.04447 8.54508 348 ft 26 kts 100°
2026-05-01 15:01 50.04353 8.54731 357 ft 24 kts 143°
2026-05-01 15:01 50.04205 8.54834 357 ft 24 kts 160°
2026-05-01 15:02 50.04057 8.54920 361 ft 17 kts 159°
2026-05-01 15:02 50.04019 8.54990 363 ft 13 kts 94°
2026-05-01 15:02 50.04070 8.55229 363 ft 22 kts 69°
2026-05-01 15:02 50.04127 8.55467 359 ft 25 kts 70°
2026-05-01 15:03 50.04174 8.55665 360 ft 13 kts 69°
2026-05-01 15:03 50.04214 8.55828 358 ft 19 kts 69°
2026-05-01 15:03 50.04274 8.55958 357 ft 16 kts
2026-05-01 15:03 50.04359 8.55920 355 ft 11 kts 340°
2026-05-01 15:04 50.04431 8.55913 354 ft 12 kts 10°
2026-05-01 15:04 50.04530 8.55960 361 ft 19 kts 22°
2026-05-01 15:04 50.04597 8.56145 358 ft 21 kts 71°
2026-05-01 15:04 50.04645 8.56342 361 ft 10 kts 68°
2026-05-01 15:05 50.04646 8.56347 360 ft 0 kts 68°
2026-05-01 15:08 50.04649 8.56361 361 ft 4 kts 69°
2026-05-01 15:08 50.04668 8.56442 359 ft 11 kts 70°
2026-05-01 15:08 50.04710 8.56565 360 ft 14 kts 54°
2026-05-01 15:09 50.04774 8.56667 358 ft 13 kts 30°
2026-05-01 15:09 50.04799 8.56715 364 ft 5 kts 94°
2026-05-01 15:09 50.04785 8.56772 364 ft 0 kts 115°